TimeAKST,TemperatureF,Dew PointF,Humidity,Sea Level PressureIn,VisibilityMPH,Wind Direction,Wind SpeedMPH,Gust SpeedMPH,PrecipitationIn,Events,Conditions,WindDirDegrees,DateUTC
12:05 AM,33.8,32.0,93,29.78,1.8,Calm,Calm,-,0.00,Snow,Light Snow,0,2012-12-06 09:05:00
12:12 AM,33.8,32.0,93,29.78,2.5,Calm,Calm,-,0.00,Snow,Light Snow,0,2012-12-06 09:12:00
12:20 AM,33.8,30.2,87,29.78,4.0,Calm,Calm,-,0.00,Snow,Light Snow,0,2012-12-06 09:20:00
12:29 AM,33.8,32.0,93,29.79,1.8,Calm,Calm,-,0.00,Snow,Light Snow,0,2012-12-06 09:29:00
12:38 AM,33.8,32.0,93,29.79,2.0,Calm,Calm,-,0.00,Snow,Light Snow,0,2012-12-06 09:38:00
12:50 AM,33.8,32.0,93,29.79,4.0,Calm,Calm,-,0.00,Snow,Light Snow,0,2012-12-06 09:50:00
12:53 AM,33.1,32.0,96,29.79,6.0,Calm,Calm,-,0.00,,Overcast,0,2012-12-06 09:53:00
1:08 AM,33.8,32.0,93,29.79,1.8,Calm,Calm,-,0.00,Snow,Light Snow,0,2012-12-06 10:08:00
1:11 AM,33.8,32.0,93,29.78,1.2,Calm,Calm,-,0.00,Snow,Light Snow,0,2012-12-06 10:11:00
1:18 AM,33.8,30.2,87,29.78,1.0,Calm,Calm,-,0.00,Snow,Light Snow,0,2012-12-06 10:18:00
1:23 AM,33.8,30.2,87,29.78,2.0,Calm,Calm,-,0.00,Snow,Light Snow,0,2012-12-06 10:23:00
1:26 AM,33.8,32.0,93,29.78,5.0,Calm,Calm,-,0.00,Snow,Light Snow,0,2012-12-06 10:26:00
1:39 AM,33.8,32.0,93,29.78,7.0,Calm,Calm,-,0.00,,Scattered Clouds,0,2012-12-06 10:39:00
1:53 AM,33.1,32.0,96,29.79,9.0,Calm,Calm,-,0.00,,Clear,0,2012-12-06 10:53:00
2:01 AM,33.8,32.0,93,29.79,8.0,Calm,Calm,-,N/A,,Scattered Clouds,0,2012-12-06 11:01:00
2:08 AM,33.8,32.0,93,29.79,10.0,Calm,Calm,-,N/A,,Mostly Cloudy,0,2012-12-06 11:08:00
3:41 AM,32.0,30.2,93,29.78,4.0,Calm,Calm,-,N/A,,Mostly Cloudy,0,2012-12-06 12:41:00
3:50 AM,32.0,30.2,93,29.78,8.0,Calm,Calm,-,N/A,,Mostly Cloudy,0,2012-12-06 12:50:00
3:53 AM,32.0,30.9,96,29.78,10.0,Calm,Calm,-,N/A,,Mostly Cloudy,0,2012-12-06 12:53:00
4:53 AM,32.0,30.9,96,29.78,10.0,North,3.5,-,N/A,,Scattered Clouds,360,2012-12-06 13:53:00
5:53 AM,30.9,30.0,96,29.78,10.0,Calm,Calm,-,N/A,,Scattered Clouds,0,2012-12-06 14:53:00
6:30 AM,32.0,30.2,93,29.78,2.5,West,4.6,-,0.00,Snow,Light Snow,270,2012-12-06 15:30:00
6:37 AM,33.8,32.0,93,29.78,1.5,Calm,Calm,-,0.00,Snow,Light Snow,0,2012-12-06 15:37:00
6:43 AM,33.8,32.0,93,29.78,1.0,SW,3.5,-,0.00,Snow,Light Snow,230,2012-12-06 15:43:00
6:47 AM,33.8,32.0,93,29.78,0.8,Calm,Calm,-,0.00,Snow,Light Snow,0,2012-12-06 15:47:00
6:53 AM,33.1,32.0,96,29.78,1.0,Calm,Calm,-,0.00,Snow,Light Snow,0,2012-12-06 15:53:00
7:18 AM,33.8,32.0,93,29.78,3.0,Calm,Calm,-,0.00,Snow,Light Snow,0,2012-12-06 16:18:00
7:37 AM,32.0,32.0,100,29.78,4.0,NNE,4.6,-,0.00,,Overcast,20,2012-12-06 16:37:00
7:44 AM,32.0,30.2,93,29.77,7.0,NNE,4.6,-,0.00,,Overcast,30,2012-12-06 16:44:00
7:53 AM,32.0,30.9,96,29.78,10.0,Calm,Calm,-,0.00,,Overcast,0,2012-12-06 16:53:00
8:11 AM,33.8,32.0,93,29.78,3.0,North,3.5,-,0.00,Snow,Light Snow,10,2012-12-06 17:11:00
8:14 AM,33.8,32.0,93,29.78,2.5,North,3.5,-,0.00,Snow,Light Snow,10,2012-12-06 17:14:00
8:25 AM,33.8,32.0,93,29.78,1.2,Calm,Calm,-,0.00,Snow,Light Snow,0,2012-12-06 17:25:00
8:35 AM,33.8,32.0,93,29.78,0.8,Calm,Calm,-,0.00,Snow,Light Snow,0,2012-12-06 17:35:00
8:42 AM,33.8,32.0,93,29.78,1.0,Calm,Calm,-,0.00,Snow,Light Snow,0,2012-12-06 17:42:00
8:49 AM,33.8,32.0,93,29.78,1.0,NNE,3.5,-,0.00,Snow,Light Snow,30,2012-12-06 17:49:00
8:53 AM,33.1,32.0,96,29.78,1.5,NE,3.5,-,0.00,Snow,Light Snow,50,2012-12-06 17:53:00
8:56 AM,33.8,32.0,93,29.78,3.0,NE,3.5,-,0.00,Snow,Light Snow,50,2012-12-06 17:56:00
9:09 AM,33.8,32.0,93,29.78,9.0,Calm,Calm,-,0.00,,Overcast,0,2012-12-06 18:09:00
9:20 AM,33.8,32.0,93,29.79,10.0,Calm,Calm,-,0.00,,Overcast,0,2012-12-06 18:20:00
9:45 AM,33.8,30.2,87,29.78,10.0,Calm,Calm,-,0.00,,Mostly Cloudy,0,2012-12-06 18:45:00
9:53 AM,33.1,30.9,92,29.79,10.0,Calm,Calm,-,0.00,,Scattered Clouds,0,2012-12-06 18:53:00
10:53 AM,33.1,32.0,96,29.78,10.0,NE,3.5,-,N/A,,Overcast,40,2012-12-06 19:53:00
11:53 AM,33.1,30.9,92,29.75,10.0,Variable,3.5,-,N/A,,Clear,0,2012-12-06 20:53:00
12:53 PM,33.1,30.9,92,29.73,10.0,NNE,4.6,-,N/A,,Mostly Cloudy,30,2012-12-06 21:53:00
1:53 PM,33.1,30.9,92,29.69,10.0,NNE,4.6,-,0.01,,Partly Cloudy,30,2012-12-06 22:53:00
2:53 PM,33.1,30.9,92,29.68,10.0,NNE,5.8,-,N/A,,Mostly Cloudy,30,2012-12-06 23:53:00
3:53 PM,33.1,30.9,92,29.63,10.0,NNE,3.5,-,N/A,,Scattered Clouds,30,2012-12-07 00:53:00
4:53 PM,34.0,30.9,89,29.59,10.0,North,6.9,-,N/A,,Clear,10,2012-12-07 01:53:00
5:53 PM,33.1,32.0,96,29.58,10.0,Calm,Calm,-,N/A,,Overcast,0,2012-12-07 02:53:00
6:53 PM,35.1,32.0,89,29.56,10.0,Calm,Calm,-,0.00,Rain,Light Rain,0,2012-12-07 03:53:00
7:00 PM,35.6,33.8,93,29.56,10.0,Calm,Calm,-,0.00,Rain,Light Rain,0,2012-12-07 04:00:00
7:34 PM,33.8,33.8,100,29.57,4.0,Calm,Calm,-,0.00,Snow,Light Snow,0,2012-12-07 04:34:00
7:41 PM,33.8,32.0,93,29.57,1.8,Calm,Calm,-,0.00,Snow,Light Snow,0,2012-12-07 04:41:00
7:45 PM,33.8,32.0,93,29.57,1.2,Calm,Calm,-,0.00,Snow,Light Snow,0,2012-12-07 04:45:00
7:50 PM,33.8,32.0,93,29.57,0.8,Calm,Calm,-,0.00,Snow,Light Snow,0,2012-12-07 04:50:00
7:53 PM,33.1,32.0,96,29.57,0.8,Calm,Calm,-,0.00,Snow,Light Snow,0,2012-12-07 04:53:00
8:12 PM,33.8,32.0,93,29.58,0.5,Calm,Calm,-,0.00,Fog-Snow,Snow,0,2012-12-07 05:12:00
8:53 PM,33.1,32.0,96,29.60,0.8,SSW,3.5,-,0.00,Snow,Light Snow,200,2012-12-07 05:53:00
8:58 PM,33.8,32.0,93,29.60,1.0,SSW,4.6,-,0.00,Snow,Light Snow,200,2012-12-07 05:58:00
9:16 PM,33.8,32.0,93,29.61,2.0,Calm,Calm,-,0.00,Snow,Light Snow,0,2012-12-07 06:16:00
9:25 PM,33.8,32.0,93,29.61,3.0,Calm,Calm,-,0.00,Snow,Light Snow,0,2012-12-07 06:25:00
9:44 PM,33.8,32.0,93,29.61,9.0,Calm,Calm,-,0.00,Snow,Light Snow,0,2012-12-07 06:44:00
9:53 PM,33.1,32.0,96,29.61,8.0,Calm,Calm,-,0.00,Snow,Light Snow,0,2012-12-07 06:53:00
10:37 PM,33.8,32.0,93,29.62,1.8,WSW,5.8,-,0.01,Snow,Light Snow,240,2012-12-07 07:37:00
10:39 PM,33.8,32.0,93,29.63,1.2,SW,6.9,-,0.01,Snow,Light Snow,230,2012-12-07 07:39:00
10:41 PM,33.8,32.0,93,29.63,0.8,Variable,5.8,-,0.01,Snow,Light Snow,0,2012-12-07 07:41:00
10:53 PM,33.1,32.0,96,29.63,1.5,South,3.5,-,0.01,Snow,Light Snow,190,2012-12-07 07:53:00
11:01 PM,33.8,32.0,93,29.64,1.0,Calm,Calm,-,0.00,Snow,Light Snow,0,2012-12-07 08:01:00
11:11 PM,33.8,32.0,93,29.64,2.0,Calm,Calm,-,0.00,Snow,Light Snow,0,2012-12-07 08:11:00
11:14 PM,33.8,32.0,93,29.64,4.0,Calm,Calm,-,0.00,Snow,Light Snow,0,2012-12-07 08:14:00
11:20 PM,33.8,32.0,93,29.64,9.0,West,5.8,-,0.00,,Overcast,280,2012-12-07 08:20:00
11:40 PM,33.8,32.0,93,29.65,10.0,Calm,Calm,-,0.00,,Overcast,0,2012-12-07 08:40:00
11:53 PM,33.1,32.0,96,29.65,10.0,South,3.5,-,0.00,,Mostly Cloudy,180,2012-12-07 08:53:00